www.pogodaiklimat.ru

ПОГОДА в Джефферсон-Сити, MO

  • Прогноз погоды в Джефферсон-Сити
  • Монитор погоды в Джефферсон-Сити
  • Климат в Джефферсон-Сити

АРХИВ ПОГОДЫ в Джефферсон-Сити

Время (UTC), дата Ветер
(напр.,м/с)
 
Видим.   Явления Облачность Т
(С)
Тd
(С)
f
(%)
Тe
(С)
Тes
(С)
Комфортность

P
(гПа)

Po
(гПа)
Тmin
(С)
Tmax
(С)
R
(мм)
SD
(см)
01:09 25.03 СЗ  16 км    10/10 780 м  +14.4  +8.3  67  +13  +13      994.8         
01:53 25.03 С  16 км    10/10 570 м  +14.4  +10.0  75  +13  +13    1014.3  995.5         
02:53 25.03 нст  16 км    10/10 480 м  +13.9  +10.0  77  +13  +13    1014.8  995.8         
03:08 25.03 СЗ  16 км    10/10 480 м  +13.3  +10.0  80  +12  +12      995.8         
03:53 25.03 СЗ  16 км    10/10 480 м  +13.3  +10.0  80  +12  +12    1015.1  996.2         
04:34 25.03 СЗ  16 км    10/10 540 м  +12.8  +9.4  80  +11  +11      996.5         
04:53 25.03 С  16 км    10/8 480 м
[средняя] 
+12.2  +9.4  83  +10  +10    1015.7  996.8  +12.2  +17.8     
05:06 25.03 СЗ  16 км    10/10 420 м  +12.2  +8.9  80  +10  +10      996.8         
05:15 25.03 С  16 км    10/10 480 м  +12.2  +8.3  77  +9  +9      996.8         
05:53 25.03 С  16 км    10/10 420 м  +12.2  +8.9  80  +10  +10    1016.1  997.2         
06:53 25.03 С  16 км    10/10 360 м  +11.7  +8.3  80  +9  +9    1016.0  996.8         
07:53 25.03 С  16 км    10/10 360 м  +11.1  +8.3  83  +8  +8    1016.1  997.2         
08:53 25.03 С  16 км    10/10 390 м  +11.1  +7.8  80  +9  +9    1016.5  997.5         
09:53 25.03 С  13 км    10/10 300 м  +10.6  +7.2  79  +8  +8    1017.3  998.2         
10:53 25.03 С  5 км  мгла  10/10 330 м  +10.0  +7.2  83  +7  +7    1018.2  999.2  +10.0  +12.2     
11:53 25.03 С  14 км    10/10 300 м  +9.4  +6.7  83  +6  +6    1019.5  1000.5         
12:48 25.03 С  4 км  дымка  10/10 300 м  +9.0  +7.0  87  +6  +6      1001.5         
12:53 25.03 С  4 км  дымка  10/10 300 м  +8.3  +6.7  90  +5  +5    1020.7  1001.5         
12:57 25.03 С  5 км  дымка  10/10 240 м  +8.3  +6.7  90  +5  +5      1001.5         
13:43 25.03 С  16 км    10/10 300 м  +8.3  +5.6  83  +5  +5      1002.1         
13:53 25.03 С  16 км    10/10 300 м  +8.3  +6.1  86  +4  +4    1021.6  1002.5         
14:08 25.03 С  5
{9} 
8 км  дымка  10/10 270 м  +7.8  +5.6  86  +4  +4      1002.5         
14:53 25.03 С  11 км    10/10 270 м  +7.8  +5.0  82  +4  +4    1022.3  1003.1         
15:15 25.03 С  11 км    10/10 300 м  +7.8  +5.0  82  +4  +4      1003.1         
15:53 25.03 С  7
{9} 
14 км    10/10 300 м  +8.3  +4.4  76  +4  +4    1022.9  1003.5         
16:34 25.03 С  16 км    10/10 510 м  +8.9  +4.4  73  +6  +6      1003.5         
16:53 25.03 С  4
{8} 
16 км    10/10 570 м  +10.0  +3.9  66  +7  +7    1023.1  1003.8  +7.8  +10.6     
17:01 25.03 С  16 км    10/10 630 м  +10.0  +3.9  66  +7  +7      1003.8         
17:12 25.03 С  16 км    10/10 690 м  +10.0  +3.9  66  +7  +7      1004.1         
17:25 25.03 С  16 км    10/10 840 м  +10.0  +3.9  66  +7  +7      1004.1         
17:46 25.03 С  16 км    10/10 870 м  +10.6  +3.3  61  +8  +8      1004.1         
17:53 25.03 С  16 км    10/8 870 м
[средняя] 
+11.1  +3.3  59  +9  +9    1023.3  1003.8         
18:53 25.03 СВ  16 км    10/0 2250 м
[средняя] 
+12.2  +2.8  53  +11  +14    1023.0  1003.8         
19:53 25.03 нст  16 км    8/0 2250 м
[средняя] 
+13.3  +1.1  43  +12  +16    1022.9  1003.8         
20:53 25.03 С  16 км    ясно  +13.9  +1.1  42  +12  +16    1022.9  1003.8         
21:53 25.03 нст  16 км    2/2 1380 м  +14.4  +2.2  44  +13  +16    1023.3  1004.1         
22:53 25.03 СВ  3
{7} 
16 км    2/2 1350 м  +13.3  +2.2  47  +12  +13    1023.7  1004.5  +10.0  +14.4     
23:53 25.03 СВ  16 км    ясно  +11.7  +2.2  52  +11  +11    1023.9  1004.5         
00:53 26.03 СВ  16 км    ясно  +10.6  +1.7  54  +9  +9    1024.4  1005.1         
01:53 26.03 СВ  16 км    ясно  +10.0  +1.7  56  +8  +8    1025.3  1006.1         
02:53 26.03 СВ  16 км    ясно  +9.4  +1.7  59  +7  +7    1026.1  1006.8         
03:53 26.03 СВ  16 км    10/10 1800 м  +8.3  +1.7  63  +6  +6    1026.3  1006.8         
04:53 26.03 СВ  16 км    10/10 1500 м  +8.3  +1.7  63  +6  +6    1026.3  1006.8  +7.8  +13.3     
05:53 26.03 В  16 км    10/10 1470 м  +7.8  +1.7  65  +5  +5    1026.3  1006.8         
06:53 26.03   16 км    10/10 1350 м  +7.8  +1.1  63  +7  +7    1026.8  1007.5         
07:53 26.03 СВ  16 км    10/10 1320 м  +7.2  +1.7  68  +5  +5    1027.0  1007.5         
08:53 26.03 СВ  16 км    10/10 1260 м  +6.7  0.0  62  +4  +4    1027.2  1007.8         
09:53 26.03 СВ  16 км    8/8 1290 м  +5.6  0.0  67  +4  +4    1027.7  1008.5         

 

Местоположение метеостанции Jefferson City Memorial Airport: широта 38.5944 долгота -92.1558 высота над уровнем моря 167 м.

В архиве по умолчанию представлена погода в Джефферсон-Сити за последние 1-2 суток. Обновление информации о фактической погоде в базе происходит ежечасно! Архивные данные за месяц целиком и за предыдущие месяцы Вы можете получить, выбрав интересующий диапазон дат из раскрывающегося списка и нажав кнопку "Ввод!".

Внимание! Архив погоды МЕТАР в базе сайта хранится не более 60 дней. Нет смысла пытаться выбрать более раннюю дату.

Внимание! Время в таблицах - всемирное. Для получения местного времени необходимо прибавить поправку, которая в Джефферсон-Сити равна -6 ч.

Ветер - указаны скорость ветра в м/с и направление, откуда дует ветер: С - северный, СВ - северо-восточный, В - восточный, ЮВ - юго-восточный, Ю - южный, ЮЗ - юго-западный, З - западный, СЗ - северо-западный.
Видимость - горизонтальная дальность видимости в метрах или километрах. При видимости от 1 до 10 км при отсутствии осадков обычно наблюдается дымка, при ухудшении видимости до 1 км и менее - туман. В сухую погоду видимость может ухудшаться дымом, пылью или мглою.
Атмосферные явления - указаны явления, наблюдавшиеся в указанный момент времени.
Облачность - указаны через наклонную черту верхняя и нижняя облачность в баллах и высота нижней границы облаков в метрах. Внимание: облачность, как и прочие метеорологические величины в США измеряются автоматическими метеостанциями. Указанные значения в баллах носят условный характер и показывают процент времени, в течение которого, в среднем, лазерный луч высотомера отражался от облаков обратно.
T - Температура воздуха - температура, измеренная на высоте 2 м над землей.
Td - Температура точки росы - температура, при понижении до которой содержащийся в воздухе водяной пар достигнет насыщения.
f - Относительная влажность воздуха - влажноcть воздуха, измеренная на высоте 2 м над землей.
Te - Эффективная температура - температура, которую ощущает одетый по сезону человек в тени. Характеристика душности погоды. При расчете учитывается влияние влажности воздуха и скорости ветра на теплоощущения человека.
Tes - Эффективная температура на солнце - температура, которую ощущает человек, с поправкой на солнечный нагрев. Характеристика знойности погоды. Зависит от высоты солнца над горизонтом, облачности и скорости ветра. Ночью, в пасмурную погоду, а также при ветре 12 м/с и более поправка равна нулю.
P - Атмосферное давление - приведенное к уровню моря атмосферное давление.
Po - Атмосферное давление - измеренное на уровне метеостанции атмосферное давление.
Tmin - Минимальная температура - минимум температуры воздуха на высоте 2 м над землей.
Tmax - Максимальная температура - максимум температуры воздуха на высоте 2 м над землей.
R - Количество осадков - Количество выпавших осадков за 3 или 6 часов, мм.
SD - Снежный покров - Высота снежного покрова, см.